Weather History for Ogallala, NE

Change the Weather History Date:

Friday, March 29, 2013

  Actual Average Record
Temperature  
Mean Temperature 53 °F -  
Max Temperature 73 °F 52 °F 84 °F (1963)
Min Temperature 33 °F 28 °F 6 °F (1975)
Degree Days  
Heating Degree Days 12    
Growing Degree Days 3 (Base 50)    
Moisture  
Dew Point 35 °F    
Average Humidity 56    
Maximum Humidity 91    
Minimum Humidity 22    
Precipitation  
Precipitation 0.00 in - - ()
Sea Level Pressure  
Sea Level Pressure 30.03 in    
Wind  
Wind Speed 7 mph (WSW)    
Max Wind Speed 24 mph    
Max Gust Speed 36 mph    
Visibility 10 miles    
Events Rain , Thunderstorm    
Averages and records for this station are not official NWS values.
T = Trace of Precipitation, MM = Missing Value Source: NWS Daily Summary

Daily Weather History Graph

Daily Weather History Graph

Search for Another Location

Airport:

Trip Planner

Search our weather history database for the weather conditions in past years. The results will help you decide how hot, cold, wet, or windy it might be!

Date:

Astronomy

Mar. 29, 2013 Rise Set
Actual Time 6:34 AM MDT 7:09 PM MDT
Civil Twilight 6:07 AM MDT 7:36 PM MDT
Nautical Twilight 5:34 AM MDT 8:09 PM MDT
Astronomical Twilight 5:00 AM MDT 8:43 PM MDT
Moon 10:13 PM MDT (3/29) 7:43 AM MDT (3/29)
Length of Visible Light 13h 29m
Length of Day
12h 34m
Waning Gibbous, 93% of the Moon is Illuminated
Mar 29
Waning Gibbous
Apr 2
Last Quarter
Apr 10
New
Apr 18
First Quarter
Apr 25
Full

Hourly Weather History & Observations

Time (MDT) Temp. Windchill Dew Point Humidity Pressure Visibility Wind Dir Wind Speed Gust Speed Precip Events Conditions
12:15 AM 46.6 °F - 35.4 °F 65% 30.11 in 10.0 mi East 3.5 mph - N/A   Clear
12:55 AM 47.1 °F - 34.5 °F 62% 30.10 in 10.0 mi South 6.9 mph - N/A   Clear
1:15 AM 45.5 °F - 34.0 °F 64% 30.11 in 10.0 mi Calm Calm - N/A   Clear
1:35 AM 43.3 °F 39.2 °F 33.8 °F 69% 30.11 in 10.0 mi SSE 6.9 mph - N/A   Clear
1:55 AM 42.8 °F - 33.8 °F 70% 30.11 in 10.0 mi Calm Calm - N/A   Clear
2:35 AM 45.5 °F - 34.3 °F 65% 30.10 in 10.0 mi Calm Calm - N/A   Clear
2:55 AM 44.2 °F 41.0 °F 34.3 °F 68% 30.10 in 10.0 mi South 5.8 mph - N/A   Clear
3:15 AM 43.9 °F 40.5 °F 34.2 °F 69% 30.10 in 10.0 mi South 5.8 mph - N/A   Clear
3:35 AM 45.0 °F 41.8 °F 34.5 °F 67% 30.09 in 10.0 mi South 5.8 mph - N/A   Clear
3:55 AM 44.6 °F 42.2 °F 34.3 °F 67% 30.09 in 10.0 mi SSW 4.6 mph - N/A   Clear
4:15 AM 44.6 °F 42.2 °F 34.5 °F 68% 30.09 in 10.0 mi SW 4.6 mph - N/A   Clear
4:35 AM 41.2 °F 38.2 °F 33.8 °F 75% 30.10 in 10.0 mi WSW 4.6 mph - N/A   Clear
4:55 AM 38.3 °F 33.2 °F 32.9 °F 81% 30.10 in 10.0 mi West 6.9 mph - N/A   Clear
5:15 AM 39.2 °F 34.2 °F 32.9 °F 78% 30.10 in 10.0 mi WNW 6.9 mph - N/A   Clear
5:35 AM 36.5 °F 31.0 °F 32.0 °F 84% 30.10 in 10.0 mi WSW 6.9 mph - N/A   Clear
5:55 AM 35.8 °F 31.9 °F 32.2 °F 87% 30.11 in 10.0 mi West 4.6 mph - N/A   Clear
6:15 AM 33.4 °F 28.1 °F 31.1 °F 91% 30.10 in 10.0 mi WSW 5.8 mph - N/A   Clear
6:35 AM 34.7 °F 31.8 °F 32.0 °F 90% 30.11 in 10.0 mi West 3.5 mph - N/A   Clear
6:55 AM 36.7 °F 32.0 °F 32.5 °F 85% 30.11 in 10.0 mi West 5.8 mph - N/A   Clear
7:15 AM 36.5 °F 32.7 °F 32.9 °F 87% 30.11 in 10.0 mi WSW 4.6 mph - N/A   Clear
7:35 AM 37.9 °F 34.4 °F 33.8 °F 85% 30.11 in 10.0 mi West 4.6 mph - N/A   Clear
7:55 AM 40.3 °F 37.1 °F 35.1 °F 82% 30.11 in 10.0 mi WSW 4.6 mph - N/A   Clear
8:15 AM 41.0 °F - 35.2 °F 80% 30.10 in 10.0 mi Calm Calm - N/A   Scattered Clouds
8:35 AM 42.4 °F 38.8 °F 35.8 °F 77% 30.10 in 10.0 mi WSW 5.8 mph - N/A   Mostly Cloudy
8:55 AM 45.5 °F 42.5 °F 36.7 °F 71% 30.10 in 10.0 mi WSW 5.8 mph - N/A   Mostly Cloudy
9:15 AM 45.5 °F 42.5 °F 36.7 °F 71% 30.10 in 10.0 mi WSW 5.8 mph - N/A   Mostly Cloudy
9:35 AM 47.1 °F - 37.2 °F 68% 30.09 in 10.0 mi Calm Calm - N/A   Mostly Cloudy
9:55 AM 48.6 °F - 38.1 °F 67% 30.08 in 10.0 mi Calm Calm - N/A   Mostly Cloudy
10:15 AM 51.4 °F - 38.8 °F 62% 30.07 in 10.0 mi Calm Calm - N/A   Scattered Clouds
10:55 AM 55.4 °F - 40.5 °F 57% 30.08 in 10.0 mi Calm Calm - N/A   Mostly Cloudy
11:15 AM 59.5 °F - 40.6 °F 50% 30.07 in 10.0 mi SW 6.9 mph - N/A   Scattered Clouds
11:35 AM 62.6 °F - 40.5 °F 44% 30.06 in 10.0 mi SSW 5.8 mph - N/A   Scattered Clouds
11:55 AM 62.6 °F - 40.3 °F 44% 30.05 in 10.0 mi South 9.2 mph - N/A   Scattered Clouds
12:15 PM 63.3 °F - 39.7 °F 42% 30.04 in 10.0 mi South 10.4 mph - N/A   Mostly Cloudy
12:35 PM 67.3 °F - 38.7 °F 35% 30.04 in 10.0 mi SSW 12.7 mph 17.3 mph N/A   Scattered Clouds
12:55 PM 67.8 °F - 38.5 °F 34% 30.03 in 10.0 mi South 13.8 mph - N/A   Mostly Cloudy
1:15 PM 70.5 °F - 36.5 °F 29% 30.01 in 10.0 mi SSW 17.3 mph 24.2 mph N/A   Scattered Clouds
1:35 PM 70.5 °F - 37.6 °F 30% 30.00 in 10.0 mi SSW 20.7 mph 25.3 mph N/A   Clear
1:55 PM 71.1 °F - 36.9 °F 29% 29.99 in 10.0 mi South 18.4 mph 27.6 mph N/A   Clear
2:15 PM 71.6 °F - 36.5 °F 28% 29.98 in 10.0 mi SSW 17.3 mph 29.9 mph N/A   Clear
2:35 PM 70.0 °F - 36.0 °F 29% 29.96 in 10.0 mi SSW 17.3 mph 31.1 mph N/A   Clear
2:55 PM 68.4 °F - 36.5 °F 31% 29.95 in 10.0 mi SSW 20.7 mph 25.3 mph N/A Rain Light Rain
3:15 PM 70.0 °F - 35.2 °F 28% 29.93 in 10.0 mi SSW 24.2 mph 32.2 mph N/A   Overcast
3:35 PM 72.7 °F - 35.1 °F 25% 29.92 in 10.0 mi SW 23.0 mph 35.7 mph N/A   Mostly Cloudy
3:55 PM 71.8 °F - 34.2 °F 25% 29.93 in 10.0 mi WSW 16.1 mph 27.6 mph N/A   Mostly Cloudy
4:15 PM 72.1 °F - 33.6 °F 24% 29.93 in 10.0 mi West 21.9 mph 25.3 mph N/A   Scattered Clouds
4:35 PM 73.0 °F - 32.2 °F 22% 29.93 in 10.0 mi West 15.0 mph 21.9 mph N/A   Scattered Clouds
4:55 PM 72.5 °F - 31.5 °F 22% 29.93 in 10.0 mi West 13.8 mph 19.6 mph N/A   Clear
5:15 PM 71.6 °F - 32.4 °F 24% 29.93 in 10.0 mi WNW 18.4 mph - N/A   Clear
5:35 PM 69.8 °F - 32.4 °F 25% 29.93 in 10.0 mi West 12.7 mph 17.3 mph N/A   Clear
5:55 PM 65.5 °F - 34.0 °F 31% 29.93 in 10.0 mi West 11.5 mph - N/A   Clear
6:15 PM 64.0 °F - 35.6 °F 35% 29.94 in 10.0 mi West 16.1 mph 23.0 mph N/A   Clear
6:35 PM 64.6 °F - 34.2 °F 32% 29.94 in 10.0 mi West 11.5 mph - N/A   Clear
6:55 PM 62.6 °F - 34.0 °F 34% 29.94 in 10.0 mi West 10.4 mph - N/A   Clear
7:15 PM 56.1 °F - 34.5 °F 44% 29.94 in 10.0 mi West 9.2 mph - N/A   Clear
7:35 PM 53.2 °F - 34.5 °F 49% 29.94 in 10.0 mi West 8.1 mph - N/A Thunderstorm Clear
7:55 PM 53.2 °F - 34.5 °F 49% 29.95 in 10.0 mi West 6.9 mph - N/A   Clear
8:15 PM 53.8 °F - 34.3 °F 48% 29.95 in 10.0 mi WSW 3.5 mph - N/A   Clear
8:35 PM 49.8 °F - 34.3 °F 55% 29.95 in 10.0 mi WSW 5.8 mph - N/A   Clear
8:55 PM 48.2 °F - 35.1 °F 60% 29.96 in 10.0 mi West 3.5 mph - N/A   Clear
9:15 PM 49.1 °F - 35.6 °F 60% 29.96 in 10.0 mi Calm Calm - N/A Thunderstorm Clear
9:35 PM 47.7 °F - 35.4 °F 63% 29.97 in 10.0 mi Calm Calm - N/A   Clear
9:55 PM 48.0 °F - 35.1 °F 61% 29.97 in 10.0 mi WSW 3.5 mph - N/A   Clear
10:15 PM 45.9 °F 42.3 °F 35.2 °F 66% 29.98 in 10.0 mi West 6.9 mph - N/A   Clear
10:35 PM 43.2 °F 39.7 °F 34.7 °F 72% 29.98 in 10.0 mi West 5.8 mph - N/A   Clear
10:55 PM 41.0 °F 37.1 °F 33.8 °F 76% 29.98 in 10.0 mi West 5.8 mph - N/A   Clear
11:15 PM 43.5 °F 40.1 °F 34.3 °F 70% 29.99 in 10.0 mi West 5.8 mph - N/A   Clear
11:35 PM 41.5 °F 39.6 °F 34.0 °F 75% 29.99 in 10.0 mi West 3.5 mph - N/A   Clear
11:55 PM 42.3 °F 37.9 °F 34.3 °F 74% 29.99 in 10.0 mi West 6.9 mph - N/A   Clear